Regional Weather Roundup
Issued by NWS

Home | Current Version | Previous Version | Text Only | Print | Product List | Glossary Off
Versions: 1 2 3 4 5 6 7 8 9 10 11 12 13 14 15 16 17 18 19 20 21 22 23 24 25 26 27 28 29 30 31 32 33 34 35 36 37 38 39 40 41 42 43 44 45 46 47 48 49 50

000
ASUS45 KSLC 280510
RWRUT

UTAH REGIONAL WEATHER ROUNDUP
NATIONAL WEATHER SERVICE SALT LAKE CITY UT
1000 PM MST TUE JAN 27 2015

UTZ001>011-023>025-280600-

NORTHERN UTAH

CITY           SKY/WX    TMP DP  RH WIND       PRES   REMARKS
BRIGHAM CITY   CLOUDY    43  40  87 CALM      30.18S
HILL AFB       LGT RAIN  41  41 100 NE5       30.19R FOG
LOGAN          CLOUDY    37  36  96 E7        30.17R FOG     WCI  32
OGDEN          LGT RAIN  41  40  96 E10       30.17R FOG
PROVO AIRPORT  MOCLDY    43  36  75 SE3       30.20R
SALT LAKE CITY CLOUDY    44  37  76 N15       30.17R
VERNAL         PTCLDY    33  26  75 CALM      30.22F
WENDOVER       CLOUDY    37  32  81 CALM      30.16S
HEBER CITY     MOCLDY    43  32  65 S7        30.18S
WEST JORDAN    CLOUDY    48  36  61 SE15      30.17S

$$

UTZ012>022-026-027-280600-

SOUTHERN/CENTRAL UTAH

CITY           SKY/WX    TMP DP  RH WIND       PRES   REMARKS
BLANDING       PTCLDY    36  32  85 N3        30.35R
BRYCE CANYON   PTCLDY    27  25  92 CALM      30.30S
CEDAR CITY     CLEAR     36  31  82 S6        30.24S WCI  31
DELTA          MOCLDY    41  33  71 SE10      30.21R
MILFORD        CLEAR     42  34  73 S18       30.22S
MOAB/CYNLANDS  CLEAR     34  30  85 SW3       30.22S
PRICE          MOCLDY    36  26  67 CALM      30.24S
ST GEORGE      MOCLDY    48  41  76 S5        30.25R
KANAB          CLEAR     34  34 100 NE5       30.30S WCI  30

$$

REGIONAL REPORTS     COLORADO/ARIZONA

CITY           SKY/WX    TMP DP  RH WIND       PRES   REMARKS
CRAIG, CO      CLOUDY    34  30  85 NW3       30.23S
GRAND JUNCTION MOCLDY    35  28  75 E5        30.24F WCI  31
RIFLE          CLOUDY    40  27  59 NE3       30.25S
MONTROSE       MOCLDY    35  25  66 SE9       30.28S WCI  28
CORTEZ         CLOUDY    36  30  79 CALM      30.29R
PAGE, AZ       NOT AVBL
GRAND CANYON   PTCLDY    29  28  96 CALM      30.31S
KINGMAN        CLEAR     47  44  90 S6        30.24R
FLAGSTAFF      PTCLDY    30  27  88 CALM      30.31F

$$

REGIONAL REPORTS    NEVADA/IDAHO/WYOMING

CITY           SKY/WX    TMP DP  RH WIND       PRES   REMARKS
LAS VEGAS, NV  PTCLDY    55  48  77 SW3       30.18R
ELY            CLOUDY    37  34  89 S12       30.23R WCI  29
ELKO           CLOUDY    38  36  92 SW6       30.19R WCI  33
POCATELLO, ID  CLOUDY    40  37  89 SW9       30.12S WCI  34
BURLEY         CLOUDY    41  39  93 W6        30.12R
EVANSTON, WY   PTCLDY    33  29  85 SW9       30.18R WCI  25
ROCK SPRINGS   PTCLDY    37  28  70 SW10      30.17S WCI  30
KEMMERER       MOCLDY    32  28  86 W5        30.18S WCI  27

$$


USA.gov is the U.S. government's official web portal to all federal, state and local government web resources and services.